Temperature
13 14 14 15 19 21 22 22 21 20 20 19 19 21 22 22 22 20 14 15 15 15 15 15 16 16 16 16 16 16 16 16 16 17 17 17 17 17 17 17 16 16 16 16 16 16 16 16 16
13 14 14 17 20 21 22 21 21 21 20 18 18 19 20 19 16 15 14 14 14 14 15 15 15 16 16 16 16 16 16 16 16 16 16 16 16 16 16 16 16 16 16 16 16 16 16 16 16
13 14 16 19 20 22 22 21 21 19 17 18 18 18 19 17 15 14 14 14 14 14 14 15 15 15 15 15 16 16 16 16 16 16 16 16 16 16 16 16 16 16 16 16 16 16 16 16 16
13 15 17 19 20 21 21 20 19 19 17 17 18 18 16 14 14 14 14 14 14 14 14 15 15 15 15 15 15 15 15 15 16 16 16 16 16 16 16 16 16 16 15 15 16 16 16 16 16
13 17 18 19 19 20 19 19 18 19 19 18 18 18 16 13 13 13 13 14 14 14 14 14 15 15 15 15 15 15 15 15 15 15 15 15 15 15 16 16 15 15 15 15 15 15 15 15 15
15 17 19 19 20 19 19 18 18 19 19 17 17 18 16 13 13 13 13 13 14 14 14 14 14 15 15 15 15 15 15 15 15 15 15 15 15 15 15 15 15 15 15 15 15 15 15 15 15
16 17 19 19 19 19 18 17 18 19 19 17 17 18 15 13 13 13 13 13 13 13 13 14 14 14 14 14 14 14 14 14 14 14 14 14 14 15 15 15 14 14 14 14 14 14 14 14 14
15 17 17 18 18 19 18 16 16 18 18 15 16 18 16 13 13 13 13 13 13 13 13 13 13 14 14 14 14 14 14 14 14 14 14 14 14 14 14 14 14 14 14 14 14 14 14 14 14
14 17 17 18 18 18 16 16 15 14 15 14 14 15 14 13 13 12 12 12 13 13 13 13 13 13 13 13 13 13 13 13 13 13 13 13 13 13 13 13 13 14 14 14 14 14 14 14 14
15 16 17 17 17 17 16 16 15 15 16 15 14 13 13 13 12 12 12 12 12 12 13 13 13 13 13 13 13 13 13 13 13 13 13 13 13 13 13 13 13 13 13 13 13 13 13 13 13
15 16 16 15 15 15 15 15 14 16 17 16 15 14 13 12 12 12 12 12 12 12 12 12 12 13 13 13 13 12 12 12 12 12 12 12 12 12 12 12 12 12 12 12 12 13 13 13 13
14 14 14 14 13 13 14 14 14 15 16 15 14 13 12 12 12 12 12 12 12 12 12 12 12 12 12 12 12 12 12 12 12 12 12 12 12 12 12 12 12 12 12 12 12 12 12 12 12
14 14 13 12 12 12 13 13 14 14 13 13 13 12 12 12 12 12 12 12 11 12 12 12 12 12 12 12 12 12 12 12 12 12 12 11 11 11 11 11 11 11 11 11 11 11 11 11 11
13 13 13 12 13 12 13 13 13 13 13 12 12 12 12 12 12 12 11 11 11 11 11 11 11 11 11 11 11 11 11 11 11 11 11 11 11 11 11 11 11 10 10 10 10 10 10 10 11
12 13 13 13 13 12 13 13 14 13 12 12 12 12 12 12 11 11 11 11 11 11 11 11 11 11 11 11 11 11 11 11 11 11 11 10 10 10 10 10 10 10 10 10 10 10 10 10 10
13 13 14 14 13 12 13 15 15 13 12 13 13 13 12 11 11 11 11 11 10 10 11 11 11 11 10 10 11 10 10 10 10 10 10 10 10 10 9 9 9 9 9 9 9 9 9 9 9
13 14 14 13 12 12 13 14 14 12 12 13 13 12 12 11 11 10 10 10 10 10 10 10 10 10 10 10 10 10 10 10 10 10 10 10 9 9 9 9 9 9 9 8 8 8 8 8 8
13 14 14 14 13 12 12 13 14 12 12 13 13 12 12 11 11 10 10 10 10 10 10 10 10 10 10 10 10 10 10 10 9 9 9 9 9 9 9 8 8 8 8 8 8 8 8 8 8
13 13 13 13 12 12 12 13 14 13 12 13 13 12 12 11 11 10 10 9 9 10 10 10 10 10 10 9 9 9 9 9 9 9 9 9 9 8 8 8 8 8 8 8 7 7 7 7 7
12 12 13 12 11 11 12 12 13 13 13 13 13 13 12 11 10 10 9 9 9 9 9 9 9 9 9 9 9 9 9 9 9 9 9 8 8 8 8 8 7 7 7 7 7 7 7 7 7
11 12 12 12 11 11 11 13 14 13 12 12 12 12 12 11 10 9 9 9 9 9 9 9 9 9 9 9 9 9 9 8 8 8 8 8 8 8 8 7 7 7 7 7 7 7 6 6 6
11 11 11 11 11 12 12 14 15 14 13 12 12 11 11 11 10 9 9 9 9 9 9 9 9 8 8 8 8 8 8 8 8 8 8 8 8 7 7 7 7 7 7 7 6 6 6 6 6
11 10 10 11 11 11 11 11 15 13 13 13 13 12 11 10 10 9 9 9 9 9 9 9 8 8 8 8 8 8 8 8 8 7 7 7 7 7 7 7 7 7 6 6 6 6 6 6 6
9 10 10 10 11 11 12 12 14 14 14 14 13 12 11 10 9 9 9 8 8 8 8 8 8 8 8 8 8 8 7 7 7 7 7 7 7 7 7 7 7 6 6 6 6 6 6 6 6
9 10 10 10 10 12 11 11 14 14 13 13 12 11 10 9 9 8 8 8 8 8 8 8 8 8 8 8 8 7 7 7 7 7 7 7 7 7 7 7 6 6 6 6 6 6 6 5 5
10 11 11 12 13 13 10 11 14 12 11 10 10 10 9 9 8 8 8 8 8 8 8 8 8 7 7 7 7 7 7 7 7 7 7 7 7 7 6 6 6 6 6 6 6 5 5 5 5
9 10 11 11 11 12 13 12 12 12 11 11 10 9 9 8 8 7 7 7 7 7 8 7 7 7 7 7 7 7 7 7 7 7 6 6 6 7 6 6 6 6 6 6 6 5 5 5 5
9 9 9 10 11 13 14 13 14 12 12 11 10 10 9 8 7 7 7 7 7 7 7 7 7 7 7 7 7 7 7 7 6 6 6 6 6 6 6 6 6 6 6 6 5 5 5 5 5
7 8 9 10 11 13 14 14 13 12 11 11 10 9 8 7 7 7 7 7 7 7 7 7 7 7 7 7 7 6 6 6 6 6 6 6 6 6 6 6 6 5 5 5 5 5 5 5 5
8 8 8 9 9 10 12 13 11 11 10 10 9 8 7 7 7 7 6 6 6 6 7 7 7 7 7 6 6 6 6 6 6 6 6 6 6 6 6 5 5 5 5 5 5 5 5 5 4
Wind_Speed
1 2 4 4 5 6 9 6 4 5 4 3 2 3 4 3 1 4 5 5 6 6 6 7 8 8 8 9 9 9 9 8 8 7 6 5 5 5 4 4 4 4 4 3 3 3 4 5 5
2 3 5 5 7 9 7 7 8 5 4 5 3 3 3 3 4 6 6 5 5 6 6 7 8 8 8 9 9 8 8 8 8 7 7 6 4 4 4 3 3 3 3 3 3 3 4 4 5
4 3 5 5 7 9 5 5 6 5 5 4 4 2 2 4 5 5 5 6 6 6 6 7 7 7 8 8 8 8 7 7 7 7 6 6 5 3 3 3 3 3 2 3 2 2 3 4 4
5 5 4 7 11 8 3 4 5 7 5 4 4 5 3 3 3 5 7 6 6 6 6 8 7 7 7 7 7 7 7 6 6 6 5 5 5 5 3 2 2 2 2 2 2 2 3 4 4
4 5 7 9 10 6 5 3 5 7 6 6 6 5 5 4 4 7 7 6 6 6 6 7 7 7 6 6 6 6 5 5 5 5 4 4 4 4 4 3 2 2 1 1 2 2 2 3 4
6 5 8 12 11 6 5 5 6 7 6 5 6 6 5 5 7 7 7 6 6 6 5 6 7 6 6 6 6 5 4 4 4 5 4 3 3 3 3 3 2 2 0 1 2 2 2 2 3
6 6 7 9 8 8 5 5 8 8 8 6 5 6 6 8 7 7 6 6 6 5 5 4 5 5 5 5 5 4 4 4 4 4 3 3 3 3 2 2 2 1 1 1 1 2 3 3 3
5 5 6 7 9 7 5 5 3 6 6 4 4 5 6 9 8 7 6 6 5 4 4 3 3 3 2 3 4 3 3 3 3 3 2 2 1 1 2 2 2 2 1 2 2 2 3 4 4
4 7 9 8 7 5 6 6 3 2 5 4 3 1 4 10 9 8 7 5 4 3 3 2 2 2 1 1 2 2 1 1 1 1 1 1 1 1 1 1 2 2 2 2 3 3 4 5 5
8 9 8 4 3 3 5 5 5 6 7 6 5 4 7 10 9 8 7 6 5 3 2 1 1 1 1 0 0 1 1 1 1 1 1 2 2 2 2 1 2 2 3 4 3 4 4 5 4
8 8 6 4 3 3 4 4 5 7 7 8 9 10 10 10 9 8 7 6 5 4 2 1 1 1 1 1 1 1 1 1 1 1 2 2 2 1 2 1 2 2 3 4 4 4 3 4 4
7 7 5 3 3 3 4 4 5 8 6 3 5 8 10 11 10 8 7 6 4 3 3 2 1 1 1 2 1 1 1 1 1 2 2 2 1 1 2 2 2 2 3 3 4 3 4 4 5
9 5 5 4 3 4 4 6 5 8 7 4 5 8 10 10 10 8 7 6 5 4 4 3 2 2 2 2 2 2 2 2 2 2 3 2 2 2 2 2 2 3 3 4 4 4 5 5 5
6 6 5 5 6 5 7 8 7 8 7 7 8 9 10 10 10 8 8 7 6 6 5 3 3 3 2 2 2 2 2 2 3 2 3 3 3 2 3 3 3 3 4 4 4 5 5 5 5
4 5 6 7 7 5 5 9 11 10 8 9 9 9 10 10 9 9 8 8 7 6 5 4 3 3 3 3 4 3 3 3 3 3 4 4 4 3 3 4 4 4 4 5 5 5 5 5 6
5 6 7 6 7 6 8 11 7 7 9 10 10 9 9 9 10 9 8 7 7 6 5 4 3 4 4 4 4 3 4 4 3 3 4 4 4 4 4 4 4 4 4 4 4 4 5 5 6
8 9 10 6 6 6 10 10 5 5 9 10 10 10 10 9 9 9 8 7 6 6 5 5 4 4 4 4 4 4 4 4 4 4 3 4 5 5 4 4 4 4 4 4 5 5 5 6 6
10 10 8 8 6 8 11 12 8 7 9 11 10 10 10 10 10 8 8 7 6 5 5 5 4 4 4 3 3 3 4 4 4 4 4 5 5 5 5 4 5 4 4 4 5 6 5 6 6
6 8 8 6 3 7 11 13 13 11 11 12 11 10 10 10 9 7 7 6 6 5 5 5 5 4 3 3 4 4 4 4 4 4 5 5 5 5 5 4 5 4 5 5 6 6 6 5 5
8 9 8 4 3 5 8 14 14 13 14 13 13 12 11 10 8 7 6 6 6 6 6 5 5 5 5 4 4 4 5 5 4 4 5 5 5 5 5 5 5 5 5 6 6 6 5 5 4
12 12 9 6 2 4 6 10 12 10 11 12 12 12 11 10 10 8 7 7 6 6 6 5 5 5 5 5 4 3 3 4 4 4 4 5 5 5 6 6 6 6 6 6 7 7 7 5 5
10 8 8 7 6 4 4 6 7 8 10 11 12 11 11 10 10 9 8 7 7 7 6 6 5 5 4 4 5 5 5 5 6 5 5 5 6 6 6 6 7 7 6 7 7 7 7 7 6
5 4 6 7 7 6 7 7 7 6 10 11 11 10 10 9 9 9 8 8 7 6 5 5 5 5 4 5 6 6 6 6 5 5 6 5 5 5 6 6 6 7 7 8 8 8 7 7 7
8 6 3 3 5 7 10 10 7 7 9 8 8 8 7 7 8 8 7 7 6 5 5 5 5 5 4 5 5 6 6 6 6 6 5 5 4 4 5 5 6 7 7 8 8 7 8 8 8
9 8 4 5 6 8 5 8 8 5 5 6 6 6 5 5 6 6 6 7 6 6 5 5 5 5 5 5 5 6 7 7 7 6 6 5 5 4 5 5 5 6 6 7 7 7 7 7 8
13 11 7 6 7 5 6 9 5 3 3 4 5 4 4 4 4 5 6 6 6 6 6 6 6 6 5 6 6 6 6 5 6 6 6 6 5 5 5 5 5 6 6 6 6 6 6 6 7
9 10 6 3 2 4 6 6 6 4 5 4 3 3 4 4 4 4 5 6 6 6 6 6 6 6 6 6 6 5 5 6 6 6 6 5 5 5 5 5 5 5 5 5 5 6 6 6 6
4 6 5 6 6 7 7 8 6 6 6 4 3 2 2 2 3 3 4 4 5 5 6 6 6 6 6 5 5 4 5 5 5 5 5 5 5 5 5 5 5 5 5 4 5 5 5 5 5
7 7 6 5 5 6 6 4 1 4 4 2 1 1 2 2 2 2 3 3 4 4 5 5 5 5 5 5 5 5 5 5 4 5 5 5 5 4 4 4 4 4 4 4 4 4 4 5 4
7 8 8 6 6 5 5 3 3 2 1 0 1 1 1 2 2 2 2 2 3 3 4 4 5 5 5 5 4 4 4 4 4 5 5 5 4 4 4 4 4 4 4 4 4 4 4 4 4
Wind_Direction
223 202 191 194 206 221 228 212 200 171 178 166 146 173 178 161 146 106 103 116 112 118 114 108 87 83 81 85 86 85 86 84 82 81 82 87 89 91 98 104 99 95 91 95 104 115 126 131 135
200 182 192 204 224 220 217 206 199 184 143 135 140 157 151 122 70 101 123 116 116 114 112 103 92 87 83 84 86 87 85 83 80 76 73 73 80 84 88 97 100 95 85 81 98 105 119 127 130
174 208 201 204 223 228 207 176 183 153 150 164 149 137 135 119 117 119 117 128 125 116 111 101 95 91 85 84 85 85 84 83 81 75 71 67 65 68 81 86 92 102 98 94 99 114 128 124 130
183 187 207 225 223 227 228 140 150 157 163 175 164 138 120 84 110 116 124 134 127 119 111 103 97 92 87 82 82 81 78 79 79 75 69 66 62 56 60 71 79 86 98 113 117 122 141 143 136
206 199 205 221 227 224 218 201 179 179 170 171 178 150 132 110 113 124 129 130 124 115 106 106 95 89 89 88 84 80 76 75 75 71 67 62 57 55 50 52 58 83 98 149 156 150 146 156 156
190 206 216 222 219 215 212 203 196 197 179 168 174 159 134 133 135 129 128 126 117 112 107 106 100 88 86 90 87 81 78 76 71 65 59 55 49 44 44 43 53 51 45 211 205 193 187 177 176
206 208 226 225 220 216 203 185 201 198 190 182 175 162 148 150 138 137 132 124 115 110 107 101 109 105 94 88 84 81 80 75 70 65 54 47 37 26 24 21 18 12 353 303 252 228 219 211 198
222 214 221 219 217 215 174 170 190 201 187 151 185 183 167 156 147 144 137 126 119 114 109 101 99 102 111 105 92 86 80 75 74 68 51 35 27 10 358 350 353 335 308 284 270 247 238 228 216
207 223 224 215 211 195 167 177 162 165 156 159 179 142 117 140 152 154 151 145 134 127 118 113 103 89 84 88 100 113 107 100 108 92 63 281 277 286 277 323 329 309 284 274 266 258 244 240 220
204 225 226 219 213 180 172 188 170 175 182 185 175 155 143 153 166 171 173 172 166 159 147 131 122 76 28 2 272 229 236 230 256 287 288 279 292 291 279 253 265 275 275 265 261 266 248 242 229
205 228 225 218 216 194 188 196 191 196 209 208 195 175 164 171 180 186 188 187 184 179 172 174 184 342 332 317 308 305 286 277 271 282 280 280 286 282 282 260 237 249 255 254 249 244 246 243 235
207 226 226 214 196 201 207 196 205 223 226 198 188 172 173 183 191 196 199 199 193 196 202 217 235 291 304 309 301 284 288 289 289 276 274 280 292 283 284 280 267 258 257 256 252 249 251 255 248
215 215 221 222 211 224 222 224 235 237 229 208 182 181 190 197 200 203 206 206 207 213 221 231 249 261 274 279 281 276 271 277 276 270 265 271 278 265 273 278 277 268 266 259 255 258 253 253 255
205 207 218 229 229 229 225 241 235 236 209 199 195 198 203 205 206 207 209 213 216 220 224 231 243 249 253 259 263 267 267 268 270 265 259 260 267 269 267 268 271 271 270 268 260 260 259 255 255
172 201 232 230 223 213 211 242 229 225 202 205 207 207 209 210 210 213 213 216 220 223 225 229 239 245 250 253 257 259 260 263 268 265 256 256 261 267 272 269 269 272 273 272 264 260 259 260 258
186 208 226 206 203 201 211 244 221 204 204 215 219 217 215 214 216 216 215 219 222 223 223 225 235 247 253 257 258 256 257 257 256 257 258 258 261 262 272 269 269 271 273 273 267 261 261 260 261
204 219 223 208 198 195 214 244 219 202 213 224 225 223 219 217 218 216 216 218 220 220 221 226 236 246 254 259 256 257 255 253 256 255 258 260 261 259 263 265 270 267 266 267 266 261 262 266 264
206 215 219 216 192 206 224 241 238 224 229 233 231 228 223 220 220 216 217 218 220 222 224 228 235 242 251 254 255 256 256 255 256 258 260 261 259 259 260 261 266 267 263 264 264 267 264 264 267
217 215 225 229 213 221 237 249 250 241 235 235 231 226 223 223 219 213 214 214 216 221 226 229 234 234 240 243 245 246 252 261 260 260 263 261 259 256 256 258 258 256 255 260 265 267 267 265 266
216 221 232 242 219 235 257 262 257 245 236 232 230 227 224 223 216 211 214 213 219 223 227 229 231 236 237 240 244 245 255 257 263 265 266 266 263 257 252 252 255 251 251 253 256 259 258 266 254
221 227 230 231 243 247 269 267 242 233 229 229 231 230 226 221 220 214 214 217 223 226 229 233 233 237 239 241 240 250 254 260 262 269 270 266 266 261 257 255 255 251 248 249 249 250 247 252 256
228 228 224 218 222 238 232 271 244 223 224 223 224 222 224 221 220 217 216 219 224 227 228 232 232 234 236 238 235 239 248 256 266 269 266 269 263 258 252 252 252 250 248 247 247 246 246 241 247
205 175 200 219 236 254 230 249 256 220 230 225 219 216 219 221 219 218 217 221 224 223 222 227 232 234 236 239 239 240 250 259 265 265 266 268 266 260 257 253 250 249 247 248 246 246 244 240 242
154 140 147 201 228 245 229 228 254 220 223 218 209 211 219 222 221 221 220 221 222 221 220 225 229 234 238 242 241 241 250 258 264 266 268 269 270 267 261 258 253 251 247 245 244 244 242 242 243
184 177 183 200 215 235 193 223 249 235 222 226 222 220 224 225 223 221 222 223 222 222 224 227 230 238 243 246 248 249 252 255 256 261 262 265 269 272 269 266 262 256 252 248 243 242 241 242 243
197 204 209 215 225 217 192 231 246 236 233 236 241 236 227 224 223 225 225 224 223 223 226 229 233 239 243 247 252 253 256 257 258 258 260 259 263 266 270 268 266 264 261 253 244 243 242 242 242
186 211 233 238 257 250 226 241 264 224 214 218 226 222 224 229 230 228 224 226 226 225 229 232 233 237 241 246 253 257 260 262 261 259 258 259 262 265 263 265 264 261 258 255 249 243 241 240 242
214 179 181 206 216 235 235 237 229 201 206 206 215 228 236 239 238 234 227 227 230 232 234 234 232 235 240 245 251 259 257 259 260 258 257 261 266 264 260 260 260 261 257 252 248 248 235 236 241
180 189 204 210 245 238 238 227 191 188 180 197 219 241 248 245 244 240 238 235 235 238 237 236 238 240 242 246 250 256 257 257 257 258 260 261 263 264 259 260 257 259 259 253 245 244 234 235 243
218 206 197 208 216 230 250 243 86 140 140 214 284 301 287 266 263 260 252 239 236 242 240 237 239 240 243 245 245 250 256 256 254 257 260 261 261 261 264 262 254 253 250 248 244 241 232 235 240
Height
1500 1501 1504 1507 1506 1500 1493 1489 1490 1493 1495 1498 1498 1498 1496 1497 1500 1507 1509 1507 1509 1510 1511 1512 1513 1514 1515 1515 1516 1516 1517 1517 1517 1517 1518 1518 1518 1518 1518 1518 1518 1518 1519 1519 1519 1519 1519 1519 1520
1500 1502 1506 1506 1499 1494 1490 1487 1490 1492 1495 1498 1499 1499 1499 1502 1504 1506 1506 1507 1509 1510 1511 1512 1513 1514 1515 1515 1516 1516 1516 1516 1516 1517 1517 1517 1517 1517 1517 1517 1517 1517 1517 1518 1518 1518 1518 1518 1519
1500 1502 1505 1500 1495 1487 1485 1488 1489 1495 1498 1498 1499 1500 1501 1503 1505 1506 1506 1507 1509 1510 1511 1512 1513 1514 1514 1515 1515 1515 1515 1515 1516 1516 1516 1515 1515 1515 1515 1515 1515 1515 1516 1516 1516 1516 1517 1517 1517
1501 1504 1504 1497 1490 1487 1487 1489 1492 1495 1498 1499 1499 1500 1503 1504 1505 1506 1506 1508 1510 1511 1511 1512 1512 1513 1514 1514 1514 1514 1514 1514 1515 1514 1514 1514 1514 1514 1514 1514 1514 1514 1514 1514 1514 1515 1515 1515 1516
1500 1501 1497 1493 1489 1488 1490 1492 1494 1493 1495 1497 1499 1499 1502 1504 1504 1505 1506 1508 1510 1510 1511 1511 1512 1512 1513 1513 1513 1513 1513 1513 1513 1513 1513 1513 1513 1512 1512 1512 1512 1512 1512 1512 1512 1513 1513 1513 1513
1500 1497 1492 1487 1485 1488 1490 1493 1494 1493 1495 1497 1499 1499 1502 1504 1504 1505 1507 1508 1509 1510 1510 1511 1511 1511 1512 1512 1512 1512 1512 1512 1512 1511 1511 1511 1511 1510 1510 1510 1509 1509 1510 1510 1510 1510 1511 1511 1511
1497 1493 1486 1483 1484 1486 1489 1492 1492 1491 1493 1497 1498 1499 1502 1504 1504 1505 1506 1508 1509 1509 1510 1510 1510 1510 1510 1510 1510 1510 1510 1510 1510 1510 1509 1509 1509 1508 1508 1507 1507 1507 1507 1507 1507 1508 1508 1508 1508
1495 1492 1488 1485 1484 1484 1489 1491 1492 1493 1493 1497 1498 1498 1500 1503 1503 1504 1506 1507 1508 1508 1509 1509 1509 1509 1509 1509 1509 1509 1508 1508 1508 1507 1507 1507 1506 1506 1505 1505 1504 1504 1504 1504 1505 1505 1505 1505 1506
1495 1492 1484 1483 1484 1484 1489 1490 1493 1494 1495 1496 1497 1498 1499 1500 1502 1504 1505 1507 1507 1507 1508 1508 1508 1508 1508 1507 1507 1507 1506 1506 1506 1505 1505 1504 1503 1503 1502 1502 1501 1501 1501 1501 1502 1502 1502 1502 1503
1493 1487 1482 1484 1484 1485 1488 1490 1492 1493 1493 1495 1496 1497 1497 1499 1501 1503 1505 1505 1506 1506 1506 1506 1506 1506 1506 1506 1505 1504 1504 1503 1503 1503 1502 1501 1501 1500 1499 1499 1498 1498 1498 1498 1498 1499 1499 1499 1499
1489 1485 1484 1487 1488 1488 1489 1490 1491 1491 1490 1491 1493 1495 1496 1498 1500 1502 1503 1504 1504 1505 1505 1505 1504 1504 1504 1503 1503 1502 1502 1501 1500 1500 1499 1499 1498 1497 1497 1496 1496 1495 1495 1495 1495 1495 1495 1496 1496
1487 1486 1487 1487 1488 1489 1489 1489 1490 1489 1489 1490 1492 1493 1495 1496 1498 1499 1501 1502 1502 1502 1502 1502 1502 1502 1502 1501 1501 1500 1499 1498 1498 1497 1497 1496 1495 1494 1494 1493 1492 1492 1491 1491 1491 1491 1491 1492 1492
1485 1485 1487 1488 1488 1489 1489 1489 1489 1487 1488 1489 1490 1491 1493 1494 1496 1498 1499 1499 1499 1500 1500 1500 1500 1499 1499 1499 1498 1498 1497 1496 1495 1494 1494 1493 1492 1491 1491 1490 1489 1489 1488 1488 1487 1487 1487 1487 1488
1483 1485 1486 1486 1487 1487 1487 1486 1487 1484 1486 1487 1488 1489 1490 1492 1493 1494 1495 1496 1496 1497 1497 1497 1497 1497 1496 1496 1495 1495 1494 1493 1493 1492 1491 1490 1489 1488 1488 1487 1486 1486 1485 1484 1484 1484 1483 1484 1484
1485 1485 1484 1484 1484 1485 1487 1483 1481 1481 1484 1485 1486 1487 1488 1489 1490 1491 1491 1492 1493 1493 1494 1494 1494 1494 1493 1493 1493 1492 1491 1490 1490 1489 1488 1487 1486 1485 1484 1484 1483 1482 1482 1481 1481 1480 1480 1479 1479
1483 1481 1478 1478 1481 1483 1486 1474 1475 1479 1480 1481 1482 1483 1484 1485 1486 1487 1488 1489 1490 1490 1490 1490 1490 1490 1490 1490 1489 1489 1488 1487 1486 1485 1485 1484 1483 1482 1481 1480 1479 1479 1478 1477 1477 1476 1476 1476 1475
1477 1473 1470 1475 1479 1480 1480 1472 1473 1477 1478 1478 1479 1479 1481 1482 1483 1484 1485 1485 1486 1486 1487 1487 1487 1487 1487 1487 1486 1485 1485 1484 1483 1482 1481 1480 1479 1478 1478 1477 1476 1475 1474 1474 1474 1473 1473 1472 1472
1468 1467 1469 1470 1475 1478 1475 1471 1471 1474 1475 1474 1475 1476 1477 1478 1478 1480 1481 1482 1482 1483 1483 1483 1483 1483 1483 1483 1482 1482 1481 1480 1479 1478 1477 1476 1475 1475 1474 1473 1472 1471 1471 1470 1470 1470 1469 1469 1468
1466 1467 1467 1469 1475 1476 1471 1468 1467 1469 1470 1470 1470 1471 1472 1473 1475 1476 1477 1478 1479 1479 1479 1479 1479 1479 1479 1478 1478 1477 1477 1476 1476 1474 1473 1472 1471 1471 1470 1469 1468 1468 1467 1466 1466 1466 1465 1465 1465
1470 1469 1468 1471 1475 1474 1469 1465 1462 1462 1463 1464 1465 1466 1468 1470 1471 1472 1473 1474 1474 1475 1475 1475 1475 1475 1475 1474 1474 1474 1473 1473 1472 1471 1470 1468 1467 1466 1465 1465 1464 1464 1463 1463 1462 1462 1462 1461 1461
1468 1466 1465 1468 1473 1473 1471 1459 1454 1454 1458 1459 1460 1461 1463 1465 1466 1467 1468 1469 1470 1471 1471 1471 1471 1471 1471 1470 1470 1470 1470 1469 1468 1467 1465 1464 1463 1462 1461 1461 1460 1460 1459 1458 1458 1458 1458 1457 1458
1464 1466 1468 1470 1469 1464 1468 1455 1445 1447 1451 1453 1454 1456 1458 1460 1461 1463 1464 1465 1465 1466 1467 1467 1467 1467 1467 1467 1466 1466 1465 1464 1464 1463 1461 1460 1459 1458 1457 1456 1456 1455 1454 1454 1454 1453 1453 1453 1453
1463 1468 1469 1469 1467 1467 1464 1463 1442 1445 1445 1445 1448 1451 1453 1455 1457 1458 1459 1460 1461 1462 1463 1463 1464 1464 1463 1463 1463 1462 1462 1461 1460 1459 1458 1456 1455 1454 1453 1452 1451 1450 1450 1449 1449 1449 1449 1449 1449
1467 1469 1470 1469 1467 1466 1454 1455 1437 1437 1437 1439 1443 1447 1449 1451 1453 1454 1456 1457 1458 1458 1459 1459 1460 1460 1459 1459 1459 1458 1458 1457 1456 1455 1453 1452 1451 1450 1449 1448 1446 1446 1445 1445 1445 1444 1444 1444 1445
1463 1463 1465 1465 1464 1451 1453 1451 1435 1433 1436 1438 1441 1444 1446 1447 1449 1450 1451 1452 1453 1454 1454 1455 1456 1455 1456 1456 1455 1455 1454 1453 1452 1451 1449 1448 1447 1446 1445 1444 1443 1442 1441 1441 1440 1440 1440 1440 1440
1455 1454 1452 1449 1442 1438 1455 1445 1432 1434 1437 1439 1440 1442 1443 1444 1445 1446 1447 1448 1449 1450 1450 1451 1451 1451 1451 1451 1451 1451 1450 1449 1448 1447 1445 1444 1443 1442 1441 1440 1439 1438 1438 1437 1436 1436 1436 1436 1436
1453 1452 1450 1449 1449 1442 1434 1435 1433 1433 1435 1437 1438 1440 1441 1441 1442 1443 1443 1444 1445 1446 1446 1447 1447 1447 1447 1447 1447 1446 1446 1445 1443 1442 1442 1441 1440 1438 1437 1436 1435 1435 1434 1433 1432 1432 1432 1432 1432
1452 1450 1454 1450 1443 1433 1426 1428 1423 1428 1430 1433 1436 1437 1438 1439 1440 1440 1441 1441 1442 1443 1443 1444 1444 1444 1444 1444 1443 1442 1442 1441 1440 1439 1438 1437 1436 1435 1434 1432 1432 1431 1430 1429 1428 1428 1428 1428 1428
1452 1453 1449 1445 1440 1430 1423 1420 1422 1425 1430 1432 1434 1436 1437 1437 1438 1438 1438 1439 1439 1440 1440 1440 1440 1440 1440 1440 1439 1439 1438 1437 1436 1435 1434 1434 1433 1432 1431 1429 1428 1427 1426 1426 1425 1424 1424 1424 1424
1447 1445 1446 1443 1444 1439 1427 1424 1426 1428 1431 1433 1435 1436 1436 1436 1436 1436 1436 1436 1437 1436 1436 1436 1437 1437 1437 1436 1436 1435 1434 1433 1433 1432 1431 1431 1430 1429 1428 1426 1425 1424 1423 1422 1422 1421 1421 1421 1421